STARLINK-2735 (48667 NORAD) Tracking and Keplerian Element Data

This shows tracking and keplerian element data for the satellite.

Feedback or suggestion? Click here.




ElementValue
Catalog48667
NameSTARLINK-2735
Epoch Orbit1151
Epoch Day214.91667824
Epoch Year2021
RAAN92.5165
Inclination53.0531
Eccentricity0.0001606
Argument of Perigee62.6657
Mean Anonmoly137.7718
Mean Motion15.14393136
Decay Rate-0.00923664
L11 48667U 21044AF 21214.91667824 -.00923664 00000-0 -53741-1 0 9998
L22 48667 53.0531 92.5165 0001606 62.6657 137.7718 15.14393136 11511

Live tracking and technical data element details for STARLINK-2735 (NORAD 48667). STARLINK-2735 can be tracked NOW for your location showing map with azimuth and elevation plus other details from your city location.

Track the satellite on the map from your city or location and see movement details for azimuth, elevation, latitude, longitude, range, height, and movement on the map or in text.







IsCatalogInMostPopularTable: catalog: 48667, numindb: 14
Update: records affected: 1



GetName: 48667 STARLINK-2735

Hit Count: updated at: Wed, 04 Aug 2021 00:12:53 GMT